Location: Canet
(43.3261°N, 5.3723°E)
Time: 18:32:11
(UTC+00:00)

SL-08 RB Rocket - Pass Details

Date: 24 January 2021
Orbit: 647 x 683 km, 97.8° (Epoch: 08 March)

Event Time Altitude Azimuth Distance (km) Brightness Sun altitude
Exits shadow 18:32:32 41° 43° (NE) 952 4.1 -20.4°
Drops below altitude 10° 18:36:04 10° 360° (N) 2,067 6.2 -21.0°
Sets 18:38:21 0° 354° (N) 2,979 7.1 -21.4°
